Miscellaneous Local Product
Issued by NWS Hastings, NE

Home | Current Version | Previous Version | Graphics & Text | Print | Product List | Glossary On
Versions: 1 2 3 4 5 6 7 8 9 10 11 12 13 14 15 16 17 18 19 20 21 22 23 24 25 26 27 28 29 30 31 32 33 34 35 36 37 38 39 40 41 42 43 44 45 46 47 48 49 50
466
AXUS43 KGID 192202
MISGRI

GID CWA HOURLY WEATHER ROUNDUP
NATIONAL WEATHER SERVICE HASTINGS NE
500 PM CDT TUE SEP 19 2017

NOTE: "FAIR" INDICATES FEW OR NO CLOUDS BELOW 12,000 FEET WITH NO
SIGNIFICANT WEATHER AND/OR OBSTRUCTIONS TO VISIBILITY.

...SOUTH CENTRAL NEBRASKA...

CITY           SKY/WX    TMP DP  RH WIND       PRES   REMARKS
GRAND ISLAND   CLOUDY    87  68  52 SE24G32   29.51F HX  90
HASTINGS       CLOUDY    92  62  36 S18G33    29.51F HX  92
KEARNEY        CLOUDY    91  62  37 S21G26    29.48F HX  91
ORD            CLOUDY    85  62  46 SE17      29.47F
YORK           CLOUDY    90  66  45 S22G30    29.53F HX  92
AURORA         CLOUDY    89  64  44 S21G28    29.52F HX  90
LEXINGTON      CLOUDY    93  49  22 S12       29.46F HX  90
HOLDREGE       CLOUDY    94  38  14 S20G28    29.48F
HEBRON         SUNNY     93  64  38 S15G28    29.55F HX  95

...NEBRASKA PANHANDLE...

CITY           SKY/WX    TMP DP  RH WIND       PRES   REMARKS
CHADRON        PTSUNNY   66  39  37 NW21G36   29.66R
ALLIANCE       CLOUDY    73  44  35 N28G39    29.60R
SCOTTSBLUFF    SUNNY     69  40  34 NW35G48   29.66R
SIDNEY         CLOUDY    85  26  11 VRB5      29.59R

...WESTERN AND NORTH CENTRAL NEBRASKA...

CITY           SKY/WX    TMP DP  RH WIND       PRES   REMARKS
VALENTINE      CLOUDY    84  59  42 SW14      29.49S
AINSWORTH      SUNNY     84  62  46 S14       29.49F
ONEILL         CLOUDY    84  67  56 S20       29.49S
BROKEN BOW     CLOUDY    89  60  37 S15G24    29.48F
IMPERIAL       CLOUDY    90  29  11 W8        29.50F
NORTH PLATTE   CLOUDY    91  50  24 S10       29.47F
MCCOOK         CLOUDY    94  37  13 S17G26    29.46F

...EASTERN NEBRASKA...

CITY           SKY/WX    TMP DP  RH WIND       PRES   REMARKS
NORFOLK        CLOUDY    86  67  52 SE24G36   29.50F
SO SIOUX CITY  CLOUDY    85  69  58 SE18G32   29.55F
TEKAMAH        SUNNY     87  66  49 SE20G30   29.57F
COLUMBUS       CLOUDY    88  68  51 SE20G30   29.52F HX  91
ALBION         PTSUNNY   85  69  59 S18G25    29.50F
OMAHA EPPLEY   MOSUNNY   90  66  45 S28G36    29.60F HX  92
OFFUTT AFB     SUNNY     88  67  49 SE24G32   29.60F HX  90
MILLARD        MOSUNNY   90  70  52 SE21G30   29.60F HX  95
LINCOLN        SUNNY     91  68  46 S26G36    29.56F HX  95
NEBRASKA CITY  SUNNY     87  70  56 SE20G28   29.63F HX  92
BEATRICE       SUNNY     92  68  45 SE24G32   29.57F HX  96
FALLS CITY     SUNNY     87  69  54 SE24G36   29.63F HX  91

...NORTHERN KANSAS...

CITY           SKY/WX    TMP DP  RH WIND       PRES   REMARKS
GOODLAND       CLOUDY    90  18   7 SW26G37   29.54F
HILL CITY      CLOUDY    97  36  12 S21G32    29.50F HX  92
NORTON         CLEAR     95  23   7 S21G30    29.47
PHILLIPSBURG   SUNNY     99  36  11 S24G33    29.48F HX  93
SMITH CENTER   PTSUNNY   93  57  29 S25G32    29.51F HX  92
HAYS           SUNNY    100  44  14 SW31G37   29.52F HX  96
RUSSELL        SUNNY     98  55  23 S26G39    29.52F HX  96
CONCORDIA      SUNNY     90  68  48 S22G28    29.56F HX  94
SALINA         SUNNY     98  66  34 S26G40    29.57F HX 101
TOPEKA         SUNNY     89  70  53 SE23G33   29.66F HX  94



USA.gov is the U.S. government's official web portal to all federal, state and local government web resources and services.